AZERSPACE 2 (IS-38)

Last updated on Sept. 27, 2020, 5:41 a.m. UTC

1 43632U 18074A   20270.84563152  .00000113  00000-0  00000-0 0  9998
2 43632   0.0255 166.6700 0001570  23.3228 165.6275  1.00269942  7542
UTC
Height (km)
Latitude
Longitude
Inclination
Orbital Period
UTC large
Height (km)
Speed (km/s)
/
Latitude / Longitude
Inclination (degrees)
Orbital Period (minutes)
Azimuth
Elevation
Range (km)
Doppler Factor
iOS Compass Heading
iOS Angle

Next 30 passes for location: Hong Kong

Rise time Rise Azimuth (degrees) Set time Set Azimuth (degrees) Duration Max altitude (degrees)

No matching passes for this satellites